Home > Weather > Kannauj > Past weeks

Flag for India Weather for the Past 2 Weeks in Kannauj, Uttar Pradesh, India

Now
63 °F

Haze.


Feels Like: 63 °F
Forecast: 53 / 77 °F
Wind: No wind

Location: Lucknow / Amausi

Current Time: Feb 10, 2016 at 9:04:54 PM

Latest Report: Feb 10, 2016 at 8:00 PM


Visibility: 2 mi

Pressure: 29.86 "Hg

Humidity: 73%

Dew point: 54 °F

Location of KannaujLocation

Historic Weather in Kannauj — Graph

°F

Kannauj Temperature Yesterday

Maximum temperature yesterday: 77 °F (at 1:30 PM)
Minimum temperature yesterday: 52 °F (at 7:00 AM)
Average temperature yesterday: 64 °F

High & Low Weather Summary for the Past Weeks

 TemperatureHumidityPressure
High82 °F (Jan 31, 2:00 PM)100% (Jan 27, 6:00 AM)30.09 "Hg (Jan 27, 6:00 AM)
Low45 °F (Jan 27, 7:00 AM)29% (Feb 2, 1:30 PM)29.83 "Hg (Feb 10, 4:30 PM)
Average64 °F66%29.97 "Hg
* Reported Jan 26 7:30 PM — Feb 10 7:30 PM, Kannauj, Weather by CustomWeather, © 2016

Note: Actual official high and low records may vary slightly from our data, if they occured in-between our weather recording intervals... More about our weather records

Advertising

Kannauj Weather History for the Previous 24 Hours

 ConditionsComfort  
Time TempWeatherWind HumidityBarometerVisibility
7:30 PM
Wed, Feb 10
64 °FHaze.No wind68%29.83 "Hg2 mi
7:00 PM66 °FHaze.No wind60%29.83 "Hg2 mi
6:30 PM68 °FHaze.No wind56%29.83 "Hg2 mi
6:00 PM70 °FHaze.No wind53%29.83 "Hg2 mi
5:30 PM75 °FHaze.3 mph44%29.83 "Hg2 mi
4:30 PM77 °FHaze.3 mph39%29.83 "Hg2 mi
4:00 PM77 °FHaze.5 mph42%29.86 "Hg2 mi
3:30 PM79 °FHaze.2 mph42%29.86 "Hg2 mi
3:00 PM79 °FHaze.5 mph37%29.86 "Hg3 mi
2:30 PM77 °FHaze.5 mph47%29.89 "Hg3 mi
2:00 PM77 °FHaze.5 mph47%29.89 "Hg2 mi
1:30 PM77 °FHaze.3 mph44%29.92 "Hg2 mi
1:00 PM77 °FHaze.3 mph44%29.92 "Hg2 mi
12:30 PM75 °FHaze.6 mph50%29.95 "Hg1 mi
12:00 PM73 °FHaze.3 mph50%29.95 "Hg1 mi
11:30 AM73 °FHaze.3 mph53%29.98 "Hg1 mi
11:00 AM72 °FHaze.No wind57%29.98 "Hg1 mi
10:00 AM68 °FHaze.No wind64%29.98 "Hg1 mi
9:30 AM63 °FHaze.No wind77%29.98 "Hg1 mi
9:00 AM59 °FFog.No wind94%29.95 "Hg1 mi
8:30 AM54 °FFog.No wind94%29.95 "Hg1 mi
8:00 AM52 °FFog.No wind94%29.95 "Hg1 mi
7:30 AM50 °FFog.No wind94%29.92 "Hg0 mi
6:30 AM50 °FFog.No wind94%29.89 "Hg0 mi
6:00 AM52 °FFog.No wind94%29.89 "Hg0 mi
5:30 AM52 °FFog.No wind100%29.89 "Hg0 mi
5:00 AM52 °FFog.No wind100%29.89 "Hg0 mi
4:00 AM54 °FFog.2 mph94%29.89 "Hg1 mi
2:00 AM57 °FFog.2 mph88%29.89 "Hg1 mi
1:00 AM57 °FFog.No wind88%29.89 "Hg1 mi
12:00 AM57 °FFog.No wind88%29.92 "Hg1 mi
11:00 PM
Tue, Feb 9
59 °FHaze.No wind82%29.92 "Hg1 mi
10:00 PM59 °FHaze.No wind82%29.92 "Hg1 mi
9:00 PM61 °FHaze.No wind77%29.92 "Hg1 mi
Weather by CustomWeather, © 2016

See weather overviewHow to use our weather pages